Preview of NWS' New Version of Forecast
This preview is not operational and should not be used for support decisions.

Regional Weather Roundup (RWR)

Issued by National Weather Service (NWS)

                            
000
ASUS43 KTOP 191308
RWRKS 

WEATHER ROUNDUP FOR KANSAS
NATIONAL WEATHER SERVICE GOODLAND KS
800 AM CDT FRI APR 19 2019

NOTE:  "FAIR" INDICATES FEW OR NO CLOUDS BELOW 12,000 FEET WITH NO
SIGNIFICANT WEATHER AND/OR OBSTRUCTIONS TO VISIBILITY.

KSZ001>006-013>018-027>032-041>047-191400-
NORTHWEST KANSAS
  
CITY           SKY/WX    TMP DP  RH WIND       PRES   REMARKS
GOODLAND       CLEAR     34  27  75 W10       30.18S WCI  26          
HAYS           SUNNY     38  34  85 NW10      30.18R WCI  31          
HILL CITY      SUNNY     40  33  76 N13       30.18R WCI  32          
RUSSELL        SUNNY     39  34  82 NW12      30.15R WCI  32          
$$

KSZ061>065-074>080-084>089-191400-
SOUTHWEST KANSAS
  
CITY           SKY/WX    TMP DP  RH WIND       PRES   REMARKS
DODGE CITY     SUNNY     36  30  79 NW12      30.19R WCI  28          
ELKHART        CLEAR     40  32  72 W6        30.22R                  
GARDEN CITY    SUNNY     38  30  73 NW10      30.19R WCI  31          
GREAT BEND       N/A     38  35  89 NW10      30.16R WCI  31          
LIBERAL        SUNNY     39  30  70 NW13      30.22R WCI  31          
PRATT          SUNNY     38  36  91 NW12      30.16R WCI  31          
$$

KSZ066>073-081>083-090>101-191400-
SOUTHEAST KANSAS
  
CITY           SKY/WX    TMP DP  RH WIND       PRES   REMARKS
CHANUTE        SUNNY     49  39  68 N13       30.04R                  
COFFEYVILLE    SUNNY     48  41  76 N10       30.03R                  
HUTCHINSON     SUNNY     41  35  79 NW12      30.12R                  
MEDICINE LODGE   N/A     41  36  82 NW8       30.14R                  
NEWTON         SUNNY     42  36  79 NW15      30.11R                  
PARSONS          N/A     48  41  76 N10       30.04R                  
WICHITA INTL   SUNNY     45  35  68 N15       30.10R                  
WICHITA JABRA  SUNNY     44  36  73 NW16      30.10R                  
WICHITA MCCONL SUNNY     45  36  71 N15       30.09R                  
WINFIELD       SUNNY     45  39  79 NW7       30.10R                  
$$

KSZ007>012-019>026-033>040-048>060-102>105-191400-
NORTHEAST KANSAS
  
CITY           SKY/WX    TMP DP  RH WIND       PRES   REMARKS
CONCORDIA        N/A    N/A N/A N/A MISG      30.12R                  
EMPORIA        MOSUNNY   44  39  82 NW12      30.06R                  
LAWRENCE       SUNNY     46  39  76 NW13      30.05R                  
MANHATTAN      SUNNY     45  36  70 VRB6      30.10R                  
MARYSVILLE     SUNNY     41  37  87 N10       30.11R                  
OLATHE IND     SUNNY     45  40  82 NW16      30.03R                  
OLATHE EXE     SUNNY     45  38  76 N13       30.02R                  
SALINA         SUNNY     42  36  79 NW10      30.14R                  
TOPEKA BILLARD SUNNY     46  38  73 NW10      30.06R                  
TOPEKA FORBES  MOSUNNY   46  38  73 N14       30.05R                  
$$